Flag for U.S.A. Weather past 2 weeks in Angels Camp, California, U.S.A.

Now
56 °F

Clear.


Feels Like: 55 °F
Forecast: 42 / 68 °F
Wind: 6 mph from North

Location: Modesto City-County-Sham Field

Current Time: Oct 26, 2014 at 12:56:44 AM

Latest Report: Oct 25, 2014 at 11:53 PM


Visibility: 10 mi

Pressure: 30.12 "Hg

Humidity: 90%

Dew point: 53 °F

Location of Angels CampLocation

Historic Weather in Angels Camp — Graph

°F

Angels Camp temperature yesterday

Maximum temperature yesterday: 67 °F (at 11:53 AM)
Minimum temperature yesterday: 55 °F (at 3:53 AM)
Average temperature yesterday: 60 °F

Past Weeks' High & Low Weather Summary

 TemperatureHumidityPressure
High89 °F (Oct 13, 3:53 PM)93% (Oct 19, 5:53 AM)30.12 "Hg (Oct 19, 5:53 AM)
Low50 °F (Oct 24, 7:53 AM)12% (Oct 12, 3:53 PM)29.76 "Hg (Oct 14, 2:53 PM)
Average66 °F59%29.95 "Hg
* Reported Oct 10 10:53 PM — Oct 25 10:53 PM, Angels Camp, Weather by CustomWeather, © 2014

Note: Actual official high and low records may vary slightly from our data, if they occured in-between our weather recording intervals... More about our weather records

Advertising

Angels Camp weather history for previous 24 hours

 ConditionsComfort  
Time TempWeatherWind HumidityBarometerVisibility
10:53 PM
Oct 25
57 °FClear.3 mph90%30.12 "Hg10 mi
9:53 PM57 °FClear.No wind87%30.11 "Hg10 mi
8:53 PM59 °FPassing clouds.3 mph84%30.09 "Hg10 mi
7:53 PM61 °FClear.No wind78%30.08 "Hg10 mi
6:53 PM62 °FPassing clouds.7 mph78%30.06 "Hg10 mi
5:53 PM64 °FPassing clouds.9 mph75%30.05 "Hg10 mi
4:53 PM67 °FScattered clouds.12 mph68%30.06 "Hg10 mi
3:53 PM63 °FScattered clouds.9 mph75%30.06 "Hg10 mi
2:53 PM65 °FPartly sunny.7 mph78%30.06 "Hg10 mi
1:53 PM63 °FOvercast.6 mph84%30.06 "Hg10 mi
12:53 PM61 °FLight rain. More clouds than sun.6 mph87%30.08 "Hg7 mi
11:53 AM67 °FOvercast.5 mph57%30.08 "Hg10 mi
10:53 AM65 °FOvercast.5 mph61%30.06 "Hg10 mi
9:53 AM63 °FOvercast.6 mph65%30.05 "Hg10 mi
8:53 AM61 °FPartly sunny.No wind72%30.01 "Hg10 mi
7:53 AM56 °FClear.7 mph84%29.98 "Hg10 mi
6:53 AM57 °FClear.6 mph81%29.96 "Hg10 mi
5:53 AM55 °FClear.6 mph87%29.94 "Hg10 mi
4:53 AM55 °FClear.6 mph87%29.94 "Hg10 mi
3:53 AM55 °FClear.No wind87%29.94 "Hg10 mi
2:53 AM57 °FClear.No wind81%29.93 "Hg10 mi
1:53 AM60 °FClear.5 mph75%29.93 "Hg10 mi
12:53 AM57 °FClear.3 mph87%29.93 "Hg10 mi
Weather by CustomWeather, © 2014

See weather overviewHow to use our weather pages